This is the latest recevied weather packets stored in our database for station/object KB7STN. If no packets are shown the sender has not sent any weather packets the latest 1 day(s).
| Time | Temp. | Humidity | Pressure | Rain* | Wind** | Luminosity | Snow |
|---|---|---|---|---|---|---|---|
| 1778006237 | 11.11° C | 60% | 1001 hPa | 0 mm | 1.79 m/s, 195° | - | - |
| 1778005937 | 11.11° C | 61% | 1001 hPa | 0 mm | 1.79 m/s, 180° | - | - |
| 1778005637 | 10.56° C | 61% | 1001 hPa | 0 mm | 1.79 m/s, 229° | - | - |
| 1778005337 | 10.56° C | 62% | 1000.9 hPa | 0 mm | 1.79 m/s, 213° | - | - |
| 1778005037 | 10.56° C | 63% | 1000.8 hPa | 0 mm | 1.34 m/s, 179° | - | - |
| 1778004737 | 10.56° C | 62% | 1000.8 hPa | 0 mm | 1.34 m/s, 201° | - | - |
| 1778004437 | 10.56° C | 63% | 1001 hPa | 0 mm | 1.34 m/s, 211° | - | - |
| 1778004137 | 10.56° C | 62% | 1001.1 hPa | 0 mm | 1.79 m/s, 209° | - | - |
| 1778003837 | 10.56° C | 63% | 1001 hPa | 0 mm | 1.34 m/s, 152° | - | - |
| 1778003537 | 10.56° C | 62% | 1001 hPa | 0 mm | 1.34 m/s, 217° | - | - |
| 1778003237 | 10.56° C | 63% | 1001 hPa | 0 mm | 1.34 m/s, 193° | - | - |
| 1778002937 | 10.56° C | 63% | 1001 hPa | 0 mm | 1.34 m/s, 219° | - | - |
| 1778002637 | 10° C | 63% | 1000.9 hPa | 0 mm | 1.79 m/s, 213° | - | - |
| 1778002337 | 10° C | 63% | 1000.9 hPa | 0 mm | 1.79 m/s, 201° | - | - |
| 1778002037 | 10° C | 65% | 1000.7 hPa | 0 mm | 1.79 m/s, 212° | - | - |
| 1778001737 | 10° C | 67% | 1000.8 hPa | 0 mm | 1.79 m/s, 211° | - | - |
| 1778001437 | 9.44° C | 68% | 1000.7 hPa | 0 mm | 1.79 m/s, 225° | - | - |
| 1778001137 | 9.44° C | 68% | 1000.7 hPa | 0 mm | 1.79 m/s, 221° | - | - |
| 1778000839 | 9.44° C | 68% | 1000.8 hPa | 0 mm | 1.34 m/s, 220° | - | - |
| 1778000537 | 8.89° C | 70% | 1000.7 hPa | 0 mm | 1.34 m/s, 213° | - | - |
| 1778000237 | 8.89° C | 71% | 1000.8 hPa | 0 mm | 1.34 m/s, 217° | - | - |
| 1777999937 | 8.89° C | 72% | 1000.8 hPa | 0 mm | 1.79 m/s, 206° | - | - |
| 1777999637 | 8.89° C | 73% | 1000.7 hPa | 0 mm | 1.79 m/s, 193° | - | - |
| 1777999337 | 8.89° C | 74% | 1000.7 hPa | 0 mm | 1.34 m/s, 205° | - | - |
| 1777999037 | 8.33° C | 74% | 1000.7 hPa | 0 mm | 1.34 m/s, 159° | - | - |
* Rain latest hour (hover to see other rain measurements)
** Current wind speed in m/s (hover to see current wind gust speed)